| Date | Time | Temp. (oF) | Dew Point (oF) | Rel. Hum. (%) | Press. (in.) | Wind Dir. | Wind Speed (mph) | Hourly Rainfall (in.) |
|
|---|---|---|---|---|---|---|---|---|---|
| 1 | 12/09 | 00:00 | 38 | 37 | 100 | 29.92 | NE | 4 | 0.00 |
| 2 | 12/08 | 23:00 | 38 | 37 | 100 | 29.92 | NNE | 7 | 0.00 |
| 3 | 12/08 | 22:00 | 39 | 39 | 100 | 29.94 | N | 5 | 0.04 |
| 4 | 12/08 | 21:00 | 40 | 40 | 100 | 29.94 | NW | 2 | 0.03 |
| 5 | 12/08 | 20:00 | 39 | 39 | 100 | 29.94 | ESE | 4 | 0.01 |
| 6 | 12/08 | 19:00 | 39 | 39 | 100 | 29.96 | E | 10 | 0.01 |
| 7 | 12/08 | 18:00 | 39 | 39 | 100 | 29.97 | ESE | 6 | 0.03 |
| 8 | 12/08 | 17:00 | 38 | 37 | 100 | 30.00 | E | 4 | 0.06 |
| 9 | 12/08 | 16:00 | 38 | 37 | 100 | 30.01 | ENE | 2 | 0.03 |
| 10 | 12/08 | 15:00 | 38 | 37 | 100 | 30.04 | NNE | 1 | 0.07 |
| 11 | 12/08 | 14:00 | 38 | 37 | 97 | 30.05 | NE | 4 | 0.00 |
| 12 | 12/08 | 13:00 | 38 | 35 | 92 | 30.09 | NE | 10 | 0.01 |
| 13 | 12/08 | 12:00 | 40 | 34 | 82 | 30.15 | NNE | 3 | 0.00 |
| 14 | 12/08 | 11:00 | 41 | 34 | 78 | 30.18 | NE | 2 | 0.00 |
| 15 | 12/08 | 10:00 | 40 | 34 | 79 | 30.20 | E | 5 | 0.00 |
| 16 | 12/08 | 09:00 | 39 | 34 | 83 | 30.21 | ESE | 3 | 0.00 |
| 17 | 12/08 | 08:00 | 38 | 35 | 91 | 30.21 | E | 2 | 0.00 |
| 18 | 12/08 | 07:00 | 35 | 34 | 99 | 30.20 | NE | 2 | 0.00 |
| 19 | 12/08 | 06:00 | 35 | 34 | 98 | 30.19 | E | 0 | 0.00 |
| 20 | 12/08 | 05:00 | 34 | 32 | 96 | 30.19 | ENE | 0 | 0.00 |
| 21 | 12/08 | 04:00 | 36 | 34 | 94 | 30.18 | NE | 1 | 0.00 |
| 22 | 12/08 | 03:00 | 37 | 35 | 93 | 30.18 | ESE | 0 | 0.00 |
| 23 | 12/08 | 02:00 | 39 | 36 | 91 | 30.17 | N | 0 | 0.00 |
| 24 | 12/08 | 01:00 | 40 | 36 | 86 | 30.16 | W | 0 | 0.00 |